CAPE
0 0 0 0 0 0 0 0 0 0 25 77 200 255 465 322 827 726 34 921 641 346 517 857 1028 1361 1269 659 179 121 0 4 86 0 238 489 665 506 199 25 0 0 0 0 0 0 22 94 114
0 0 0 0 0 0 0 0 0 0 0 0 192 258 586 733 679 546 325 876 365 438 603 1167 1281 1459 1203 614 250 92 4 24 71 9 232 587 650 499 188 43 0 0 0 0 0 32 205 521 626
0 0 0 0 0 0 0 0 0 12 31 14 111 159 739 757 656 389 755 646 344 211 789 1332 1265 1368 1163 663 425 83 66 89 24 0 240 394 332 280 70 14 1 15 60 59 52 224 679 578 190
0 0 0 0 0 0 0 0 0 29 17 6 88 508 944 706 832 376 706 466 213 82 987 1177 1165 1266 1171 797 519 124 71 68 11 13 137 87 143 10 0 0 0 0 183 209 192 247 343 111 230
0 0 0 0 0 0 0 0 0 5 21 0 0 502 810 1125 762 429 547 233 81 288 871 1119 1138 1272 1175 833 470 134 136 76 17 0 43 127 18 2 0 0 4 3 172 265 173 31 58 60 42
0 0 0 0 0 0 0 0 1 0 6 0 0 516 975 1177 752 635 448 103 43 566 541 1048 1101 1155 1163 882 469 229 263 161 28 1 86 74 27 64 23 0 0 0 0 47 53 0 0 0 0
0 0 0 0 0 0 0 0 13 0 0 14 0 1096 1069 1041 813 700 294 106 308 312 302 769 1016 1229 1129 905 664 491 432 290 58 14 141 39 44 40 27 0 0 0 0 0 0 0 0 0 0
0 0 0 0 0 0 0 0 26 2 1 0 0 1121 1283 1044 906 694 211 193 507 145 160 220 478 739 943 869 738 588 496 289 4 9 63 39 24 21 30 0 0 0 0 0 0 0 0 0 0
0 0 0 0 0 0 0 0 0 1 0 0 15 1311 1780 1127 988 720 416 441 564 205 90 14 19 84 106 414 700 668 586 294 44 66 109 64 14 0 58 0 0 0 0 0 0 0 0 0 0
0 0 0 0 0 0 0 0 10 33 1 4 190 1960 1492 1660 1184 935 682 650 634 495 186 86 33 24 0 0 148 102 100 43 8 51 88 16 0 55 166 0 0 0 0 0 0 0 0 0 0
0 0 0 0 0 0 0 0 74 64 3 0 26 1171 1313 1237 1722 1266 949 779 716 698 369 311 232 180 120 67 9 22 16 0 0 0 42 0 0 175 92 107 0 0 0 0 0 0 0 0 0
0 0 0 0 0 0 0 0 0 4 0 1 1 1064 1113 1399 1855 1684 1369 1114 939 840 509 516 733 444 555 396 66 151 82 15 0 2 133 1 111 524 353 407 177 9 0 0 13 8 14 15 7
0 0 0 0 0 0 0 0 0 0 0 6 864 1328 1142 1448 1784 1768 1722 1487 1215 999 697 728 996 662 1055 625 380 485 463 401 369 373 600 344 194 279 174 157 27 58 32 58 37 72 30 141 60
0 0 0 0 0 0 0 0 0 0 0 19 0 897 1205 1370 1841 2060 1872 1704 1485 1272 995 980 1204 977 1368 1986 940 734 845 780 923 937 960 838 862 679 206 139 75 11 15 3 7 1 0 3 86
0 0 0 0 0 0 0 0 0 0 0 0 0 204 676 1312 1663 1994 2233 2019 1859 1667 1410 1446 1790 1645 1630 1717 2135 1484 1575 917 998 1150 1263 1193 1024 1067 333 430 100 63 15 9 4 0 9 10 166
0 0 0 0 0 0 0 0 0 0 0 0 0 27 341 1241 1362 1805 2008 2332 2649 2215 1935 2045 1798 2244 2048 2347 2115 2137 1580 1590 1250 1112 1445 1484 1304 1014 1141 749 514 171 106 23 0 0 0 4 156
0 0 0 0 0 0 0 0 0 0 0 0 0 0 370 852 1383 1718 2240 2714 2969 2866 2512 2295 2398 2370 2447 2423 2477 2396 2204 1836 1446 1624 1671 1646 1659 1496 1252 1352 628 551 60 19 3 2 36 319 638
0 0 0 0 0 0 0 0 0 0 0 0 0 0 347 584 1018 1549 2066 2756 2696 2705 2795 2657 2475 2451 2518 2328 2398 2361 1862 1720 1616 1666 1598 1434 1360 1414 1448 1220 1034 1017 217 48 33 1 12 187 540
0 0 0 0 0 0 0 0 0 0 0 0 0 0 222 452 746 1314 1858 2901 2639 2503 2293 2451 2276 2357 2127 2362 1945 1645 2022 1673 1519 1146 1120 956 1159 1167 1161 1273 1140 547 420 144 190 73 126 57 488
0 0 0 0 0 0 0 0 0 0 0 0 0 0 92 328 501 678 950 1334 2917 3016 2731 2616 2550 2318 2064 2191 2422 2195 1603 1427 1351 1246 1103 978 964 1062 1096 1098 932 706 625 319 180 482 447 388 687
0 0 0 0 0 0 0 0 0 0 0 0 0 0 19 60 333 509 417 400 513 1206 2263 2916 2672 2345 2242 2229 2069 2105 2018 1787 1775 1253 1289 1031 589 854 967 914 1262 861 1033 880 964 566 535 608 709
0 0 0 0 0 0 0 0 0 0 0 0 0 0 5 0 3 429 368 446 469 617 774 1254 2354 2896 2682 2243 2081 1961 1777 1686 1839 1837 1809 1784 1558 1288 1092 339 605 784 543 182 592 60 137 752 610
0 0 0 0 0 0 0 0 0 0 0 0 0 0 0 1 4 201 186 312 511 696 943 1164 1609 2266 2307 2476 2361 1902 1742 1899 1792 2099 1602 1611 1772 1523 1336 613 746 689 567 552 4 244 319 517 513
0 0 0 0 0 0 0 0 0 0 0 0 0 0 0 0 0 0 0 156 306 351 900 1341 1506 1722 1778 2014 2393 2053 2313 2134 1524 1324 1294 1231 988 826 583 835 729 470 585 637 709 870 890 816 994
0 0 0 0 0 0 0 0 0 0 0 0 0 0 0 0 0 0 0 0 23 27 870 1531 1622 1575 1616 1800 1557 1528 1672 1712 1561 1405 1257 804 379 89 89 31 0 2 0 0 0 0 50 264 297
0 0 0 0 0 0 0 0 0 0 0 0 0 0 0 0 0 0 0 0 0 0 970 1213 1194 1184 1290 1668 1510 1502 1088 854 836 642 285 20 1 0 0 0 0 0 0 0 0 0 0 1 5
0 0 0 0 0 0 0 0 0 0 0 0 0 0 0 0 0 0 0 0 0 119 1143 1023 934 1509 1299 848 565 492 332 248 82 0 0 0 0 0 0 0 0 0 0 0 0 0 0 0 0
0 0 0 0 0 0 0 0 0 0 0 0 0 0 0 0 0 0 35 530 955 1154 912 710 581 566 367 317 38 0 0 0 0 0 0 0 0 0 0 0 0 0 0 0 0 0 0 0 0
0 0 0 0 0 2 0 0 0 0 0 0 0 0 0 0 19 271 660 713 685 726 561 338 137 1 0 0 0 0 0 0 0 0 0 0 0 0 0 0 0 0 0 0 0 0 0 0 0
0 0 0 0 0 0 0 1 0 0 0 0 241 227 335 463 596 703 602 468 361 264 103 2 0 0 0 0 0 0 0 0 0 0 0 0 0 0 0 0 0 0 0 0 0 0 0 0 0
CIN
0 0 0 0 0 0 0 0 0 0 -33 -6 -33 -66 -20 -108 -45 -84 -198 -195 -307 -435 -447 -345 -298 -222 -218 -330 -493 -527 0 -531 -502 0 -399 -220 -138 -176 -295 -489 0 0 0 0 0 0 -283 -198 -185
0 0 0 0 0 0 0 0 0 0 0 0 -33 -17 -24 -87 -101 -118 -153 -243 -357 -427 -399 -295 -251 -195 -223 -350 -452 -549 -571 -556 -515 -404 -395 -201 -151 -184 -305 -437 0 0 0 0 0 -262 -150 -87 -70
0 0 0 0 0 0 0 0 0 -3 -29 -54 -27 -27 -17 -70 -68 -122 -182 -309 -377 -479 -332 -267 -252 -201 -226 -328 -380 -544 -534 -501 -568 0 -372 -282 -268 -275 -415 -459 -73 -409 -317 -302 -277 -169 -64 -68 -145
0 0 0 0 0 0 0 0 0 -5 -41 -102 -14 -16 -63 -67 -89 -185 -211 -321 -407 -489 -311 -292 -265 -231 -217 -281 -333 -496 -524 -515 -589 -551 -423 -453 -378 -526 0 0 0 0 -256 -211 -194 -159 -116 -181 -138
0 0 0 0 0 0 0 0 0 0 -17 0 0 -20 -60 -63 -139 -172 -218 -332 -433 -394 -340 -308 -276 -211 -214 -257 -328 -465 -468 -507 -566 0 -476 -410 -511 -128 0 0 -367 -270 -266 -201 -223 -227 -258 -232 -227
0 0 0 0 0 0 0 0 -23 0 -10 -1 -1 -24 -35 -84 -138 -171 -223 -348 -407 -359 -414 -315 -279 -235 -209 -232 -320 -398 -377 -431 -530 -301 -433 -423 -487 -423 -476 0 0 0 0 -204 -313 0 0 0 0
0 0 0 0 0 0 0 0 -17 0 0 -5 0 -22 -50 -68 -129 -165 -241 -326 -329 -430 -464 -352 -288 -215 -227 -233 -257 -297 -296 -355 -498 -499 -394 -469 -446 -443 -452 0 0 0 0 0 0 0 0 0 0
0 0 0 0 0 0 0 0 -13 -25 -19 0 -3 -10 -18 -56 -111 -162 -232 -259 -304 -448 -512 -492 -408 -337 -260 -256 -251 -260 -290 -347 -333 -363 -448 -463 -472 -465 -425 0 0 0 0 0 0 0 0 0 0
0 0 0 0 0 0 0 0 0 -21 0 0 -23 -32 -29 -50 -55 -116 -165 -215 -270 -393 -502 -584 -588 -548 -498 -360 -293 -286 -280 -354 -491 -448 -392 -430 -389 0 -409 0 0 0 0 0 0 0 0 0 0
0 0 0 0 0 0 0 0 -4 -44 -6 -12 -22 -61 -118 -31 -17 -36 -103 -154 -237 -303 -417 -470 -550 -573 0 -38 -490 -509 -494 -509 -314 -451 -410 -359 0 -382 -304 0 0 0 0 0 0 0 0 0 0
0 0 0 0 0 0 0 0 -8 -5 -8 0 -4 -6 -79 -76 -1 0 -17 -67 -141 -223 -319 -361 -372 -409 -422 -459 -388 -550 -535 -11 0 0 -437 0 0 -270 -316 -319 0 0 0 0 0 0 0 0 0
0 0 0 0 0 0 0 0 0 -6 0 -1 0 -14 -19 -15 -19 -3 -1 -7 -38 -119 -229 -279 -251 -285 -246 -306 -495 -413 -444 -437 -58 -53 -376 -53 -346 -147 -203 -192 -258 -444 -56 0 -439 -436 -350 -337 -132
0 0 0 0 0 0 0 0 0 0 0 -14 -18 -15 -16 -2 -5 -4 -3 -4 -8 -58 -145 -205 -212 -248 -149 -245 -284 -249 -244 -256 -272 -280 -217 -264 -304 -223 -270 -266 -365 -326 -304 -284 -320 -244 -274 -153 -171
0 0 0 0 0 0 0 0 0 0 0 -13 0 -4 -3 -2 -1 -2 -3 -4 -7 -37 -94 -125 -146 -177 -94 -41 -141 -161 -129 -147 -119 -130 -136 -145 -133 -143 -275 -294 -316 -342 -289 -190 -308 -139 -10 -141 -123
0 0 0 0 0 0 0 0 0 0 0 0 0 -4 -4 -2 -2 -1 -3 -8 -9 -26 -58 -61 -71 -70 -47 -30 -17 -44 -31 -96 -90 -66 -74 -74 -100 -76 -213 -183 -303 -327 -347 -276 -118 0 -199 -191 -108
0 0 0 0 0 0 0 0 0 0 0 0 0 -1 -4 -3 -3 -1 -3 -3 -7 -22 -29 -11 -37 -23 -14 -4 -6 -3 -25 -20 -58 -63 -32 -48 -60 -84 -60 -126 -158 -229 -229 -277 0 0 0 -104 -111
0 0 0 0 0 0 0 0 0 0 0 0 0 0 -3 -3 -3 -2 -1 -16 -15 -17 -15 -8 -5 -20 -15 -3 -2 -2 -3 -3 -18 -11 -17 -30 -24 -29 -60 -41 -121 -104 -193 -195 -119 -120 -159 -46 -13
0 0 0 0 0 0 0 0 0 0 0 0 0 0 -2 -3 -4 -5 -4 -22 -28 -27 -18 -16 -12 -5 -4 -8 -3 -1 -6 -14 -15 -29 -38 -42 -44 -39 -23 -34 -27 -25 -119 -175 -166 -48 -154 -56 -26
0 0 0 0 0 0 0 0 0 0 0 0 0 0 -2 -1 -2 -3 -3 -13 -21 -24 -31 -15 -18 -7 -7 -5 -17 -37 -5 -24 -37 -73 -80 -106 -77 -65 -41 -15 -12 -28 -45 -117 -75 -113 -98 -88 -38
0 0 0 0 0 0 0 0 0 0 0 0 0 0 -10 -2 -7 -7 -4 -4 -2 -4 -10 -12 -11 -18 -36 -14 -6 -3 -25 -21 -49 -57 -86 -91 -77 -54 -19 -18 -22 -24 -35 -73 -93 -20 -45 -59 -37
0 0 0 0 0 0 0 0 0 0 0 0 0 0 -57 -51 -4 -11 -33 -56 -76 -54 -12 -3 -13 -25 -21 -8 -8 -10 -12 -16 -11 -36 -49 -91 -113 -58 -42 -30 -2 -8 -6 -8 -8 -24 -21 -5 -3
0 0 0 0 0 0 0 0 0 0 0 0 0 0 -1 0 -6 -14 -27 -35 -64 -84 -98 -74 -9 -4 -9 -14 -8 -10 -16 -11 -5 -5 -21 -18 -28 -11 -20 -113 -84 -19 -45 -138 -13 -1 -37 -5 -6
0 0 0 0 0 0 0 0 0 0 0 0 0 0 0 -4 -8 -7 -27 -52 -27 -36 -47 -59 -49 -11 -4 -3 -5 -8 -18 -5 -6 -5 -11 -18 -19 -21 -27 -82 -16 -4 -38 -18 -81 -83 -22 -12 -24
0 0 0 0 0 0 0 0 0 0 0 0 0 0 0 0 0 0 0 -30 -27 -20 -14 -28 -46 -34 -24 -7 -2 -9 -4 -6 -15 -26 -31 -13 -37 -18 -80 -13 -27 -78 -58 -61 -26 -17 -14 -17 -14
0 0 0 0 0 0 0 0 0 0 0 0 0 0 0 0 0 0 0 0 -24 -26 -21 -35 -13 -17 -12 -3 -18 -20 -9 -13 -11 -20 -22 -39 -65 -178 -160 -55 0 -55 0 0 0 0 -212 -112 -70
0 0 0 0 0 0 0 0 0 0 0 0 0 0 0 0 0 0 0 0 0 0 -28 -45 -29 -7 -10 -20 -16 -17 -35 -54 -60 -76 -110 -208 -32 0 0 0 0 0 0 0 0 0 0 -12 -96
0 -13 0 0 0 0 0 0 0 0 0 0 0 0 0 0 0 0 0 0 0 -34 -54 -27 -16 -7 -31 -83 -89 -61 -91 -116 -153 0 0 0 0 0 0 0 0 0 0 0 0 0 0 0 0
0 0 0 0 0 0 0 -2 0 0 0 0 0 0 0 0 0 0 -12 -60 -116 -117 -117 -77 -76 -83 -113 -112 -247 0 0 0 0 0 0 0 0 0 0 0 0 0 0 0 0 0 0 0 0
0 0 0 0 0 -1 0 0 0 0 0 0 0 0 0 0 -22 -73 -62 -97 -91 -91 -116 -129 -192 -50 0 0 0 0 0 0 0 0 0 0 0 0 0 0 0 0 0 0 0 0 0 0 0
0 0 0 0 0 0 0 -3 0 0 0 0 -60 -56 -37 -36 -37 -69 -76 -93 -148 -147 -222 -18 0 0 0 0 0 0 0 0 0 0 0 0 0 0 0 0 0 0 0 0 0 0 0 0 0
Wind_Speed
32 32 30 31 28 28 40 40 38 34 17 12 15 15 14 9 12 9 7 12 11 11 8 9 12 14 17 19 17 15 17 17 16 16 17 18 18 18 19 19 19 20 21 22 23 24 24 24 24
30 31 31 31 36 39 40 38 39 32 9 13 12 11 14 13 10 10 7 11 12 11 10 10 12 15 17 19 17 15 15 16 16 16 17 18 17 17 17 17 19 19 20 20 21 21 22 21 21
29 29 31 30 41 44 40 36 35 28 9 13 14 10 14 10 11 8 13 13 12 12 10 12 13 15 17 17 16 15 15 15 15 16 16 16 16 16 16 17 18 18 18 18 19 19 19 19 19
23 27 31 42 44 42 46 40 36 27 11 16 12 11 9 10 8 13 15 15 14 13 10 13 14 16 17 17 16 15 14 14 14 14 15 16 16 15 15 16 16 16 16 16 17 17 17 16 16
27 28 33 41 47 45 44 41 36 21 12 16 13 9 8 8 10 13 17 14 15 13 10 12 12 13 15 18 15 14 13 14 13 14 14 14 14 13 14 14 14 15 15 15 15 14 14 14 14
26 30 36 44 44 44 47 42 35 23 12 10 10 4 7 4 6 11 15 14 16 13 12 10 12 14 14 15 15 13 12 12 12 12 12 12 12 12 12 13 13 13 13 13 12 12 12 12 11
33 29 41 42 40 45 49 42 24 25 27 13 13 7 10 2 5 10 12 14 15 13 12 9 10 8 9 8 10 10 9 10 11 11 10 10 10 10 11 11 11 12 11 12 11 11 11 10 10
34 37 43 46 45 43 44 44 21 24 28 11 12 12 10 5 6 8 10 11 12 12 10 10 9 8 6 5 8 9 10 10 10 11 10 9 8 8 9 9 10 10 10 10 10 10 10 10 9
34 40 47 45 39 45 33 41 32 25 25 13 14 13 6 4 5 7 9 9 9 10 9 9 10 9 7 6 8 7 7 7 8 8 8 7 6 7 7 7 8 8 8 8 9 9 9 8 7
38 42 48 38 40 43 42 37 24 26 31 13 13 6 11 12 4 5 7 8 8 9 8 8 10 10 8 7 6 8 8 8 9 8 6 6 6 6 5 6 7 7 7 7 7 7 7 7 7
43 52 41 44 43 42 42 39 13 21 31 26 17 12 6 9 13 7 6 6 7 8 7 8 9 9 10 5 4 5 6 7 7 7 5 6 5 4 6 6 6 7 5 7 6 8 8 8 8
46 49 47 41 43 42 41 41 35 28 30 24 24 13 10 11 11 14 9 7 6 6 6 7 7 9 5 4 5 2 4 4 3 3 4 3 4 4 5 5 4 5 6 7 7 9 7 7 8
49 45 45 46 41 42 37 39 33 24 28 20 7 12 15 15 15 15 14 8 6 6 5 7 7 6 3 3 3 5 4 3 3 2 2 2 3 6 4 6 5 6 7 7 9 10 12 10 13
43 43 41 43 44 39 37 36 28 19 20 13 15 13 13 15 15 18 14 11 9 7 6 5 6 5 5 7 2 2 1 2 1 1 1 2 2 5 4 4 7 9 13 10 7 10 9 12 11
43 44 44 40 40 40 28 36 32 21 21 15 20 20 21 17 14 18 14 12 10 9 8 6 4 4 5 8 11 6 7 2 2 3 1 1 2 5 4 7 7 8 10 10 12 15 17 18 18
46 47 46 44 35 38 26 39 32 28 23 28 20 20 21 19 17 16 17 11 10 10 10 9 9 6 6 9 11 11 12 8 9 4 7 4 4 4 11 11 11 9 9 8 7 12 17 14 12
45 50 51 41 39 32 30 34 31 29 29 27 24 23 18 17 15 12 14 15 12 11 11 13 13 8 7 11 13 14 16 15 11 12 14 10 9 10 12 14 17 15 10 12 15 13 16 16 18
49 50 48 44 36 36 33 35 33 27 27 26 24 25 18 16 15 16 16 13 14 13 13 14 17 15 9 10 14 16 16 16 14 17 16 16 15 16 16 19 19 25 15 16 18 16 17 21 22
41 43 44 39 32 33 36 32 30 28 26 25 21 25 21 16 13 11 14 10 11 16 18 18 17 19 15 14 14 17 17 15 17 21 20 18 19 19 21 23 22 22 21 20 22 20 21 25 26
46 43 44 36 36 32 34 34 32 31 23 24 21 21 21 16 12 9 10 12 9 8 8 10 15 18 18 17 17 16 18 16 14 14 16 18 19 20 23 22 24 25 24 25 26 24 23 21 19
50 45 38 43 32 29 29 36 30 35 21 23 19 19 18 17 14 10 8 9 10 10 10 9 8 8 11 14 16 18 19 19 20 16 17 16 16 18 20 23 24 28 30 31 32 29 23 22 21
48 45 35 41 33 36 29 36 36 34 23 24 21 20 15 16 16 11 8 8 8 9 9 11 10 9 9 12 15 18 20 22 22 23 22 22 22 20 23 26 31 25 24 20 30 34 40 33 37
47 40 35 38 36 27 33 36 31 34 25 26 24 22 17 15 13 10 8 7 6 7 7 8 8 9 12 11 16 16 18 21 25 24 23 25 23 25 26 26 27 22 19 21 26 40 31 30 28
46 38 33 33 32 40 34 39 33 29 28 21 19 20 18 14 14 13 12 5 4 5 6 7 7 10 13 16 15 17 21 24 26 26 25 24 22 20 23 23 24 23 25 28 31 33 34 36 35
47 38 39 40 35 42 35 34 37 24 24 25 20 18 17 15 13 12 12 13 7 6 4 3 7 10 13 14 18 19 21 21 21 22 23 20 18 20 23 25 25 26 28 29 31 34 34 35 36
47 40 40 40 39 37 32 31 35 37 23 21 18 17 15 14 13 14 11 10 11 12 5 3 6 8 11 15 17 18 17 17 18 19 19 21 22 23 25 26 27 28 30 31 33 33 35 36 37
43 43 33 31 29 27 32 28 24 10 16 19 17 15 15 15 14 11 12 11 9 7 2 3 6 10 12 13 15 17 17 17 18 20 20 22 25 25 26 27 29 30 32 34 36 37 38 40 39
43 42 40 34 34 32 27 26 20 18 17 16 17 14 12 10 9 9 6 1 2 4 5 6 8 10 13 14 15 16 17 18 18 19 20 22 24 26 28 30 32 34 35 37 38 39 40 41 40
41 44 36 28 30 28 24 25 16 15 14 11 12 9 8 7 6 4 4 3 3 4 6 7 9 11 13 15 16 17 17 18 19 20 23 25 26 28 31 33 34 36 37 38 39 39 38 40 42
40 38 35 29 29 21 23 16 13 13 13 13 9 7 6 6 4 2 2 3 4 4 6 8 10 12 13 14 15 16 17 19 20 22 24 27 28 30 31 32 32 32 34 34 35 38 39 39 40
Wind_Direction
267 263 266 266 265 261 242 238 237 254 313 332 331 347 19 313 317 310 64 84 90 105 109 104 101 103 106 108 104 97 94 89 83 82 82 78 73 70 69 66 64 66 68 73 77 79 81 83 82
266 264 264 265 255 250 245 238 242 256 304 324 319 337 3 1 9 61 53 84 91 109 109 104 101 103 108 111 106 101 96 91 87 87 87 82 75 71 66 60 67 67 68 69 76 78 80 83 83
264 261 260 259 250 246 246 241 242 243 302 306 300 327 323 359 23 52 82 88 96 108 105 104 102 104 109 110 106 103 99 93 89 90 90 84 78 73 67 67 71 66 65 71 76 76 78 77 77
264 256 257 250 246 246 239 243 255 260 294 278 306 309 314 351 16 75 89 92 103 108 106 106 103 107 110 110 108 105 101 95 91 90 91 88 83 74 67 69 71 68 69 69 70 71 74 72 72
254 252 251 250 246 245 238 241 245 266 282 270 280 302 305 325 64 94 97 98 108 106 108 106 104 105 109 112 109 105 102 98 94 94 93 87 80 66 62 61 62 65 66 66 68 69 68 68 69
252 249 250 247 248 246 236 238 246 265 282 274 264 293 297 12 88 105 102 105 110 104 111 108 104 105 107 110 111 107 103 99 95 95 94 85 75 64 57 60 62 60 61 64 65 63 64 65 67
248 245 248 249 250 246 236 241 259 252 257 280 273 280 276 240 119 113 108 110 107 104 113 112 106 101 101 104 106 104 99 95 94 95 93 87 75 64 58 54 55 59 60 58 57 61 62 57 61
247 250 249 247 245 246 243 241 262 256 250 287 292 298 262 171 139 124 119 117 106 111 117 117 111 106 101 98 102 105 104 102 100 102 100 89 77 60 46 49 57 53 54 49 48 49 46 50 56
246 247 246 245 246 243 251 245 247 253 249 266 273 294 309 194 146 137 130 123 115 119 125 126 119 113 106 99 101 95 90 86 90 93 91 81 58 46 45 56 68 54 53 45 40 38 43 44 49
241 244 244 249 250 245 248 249 240 241 244 259 258 287 277 296 213 168 151 141 129 134 144 138 124 118 113 101 98 95 94 89 98 96 86 83 86 59 58 48 54 40 37 30 27 27 33 26 25
241 242 247 246 246 246 246 249 228 233 243 252 255 254 200 235 257 208 192 165 144 148 160 150 138 127 121 103 93 79 84 90 98 100 89 110 83 50 18 23 22 9 20 3 11 5 6 8 11
242 243 243 247 247 247 248 244 252 245 247 255 265 241 237 226 230 242 224 204 168 165 176 155 147 135 138 115 105 84 74 77 61 78 91 70 11 20 32 24 23 21 5 347 348 348 0 357 353
241 242 243 243 246 247 248 248 258 241 248 259 224 241 244 244 239 242 244 221 203 195 197 167 151 155 203 132 104 125 109 102 80 87 87 23 355 352 0 350 348 351 354 342 338 333 334 338 339
241 243 245 243 243 248 248 243 258 243 243 239 243 238 239 243 245 246 237 231 217 206 215 189 176 170 251 283 134 139 135 125 56 53 90 134 339 335 347 339 335 322 325 327 323 330 328 331 336
241 240 241 241 239 243 250 241 246 241 236 245 248 254 259 255 249 250 250 228 224 219 221 234 209 193 242 272 300 299 316 319 337 328 288 248 263 325 309 332 330 329 319 320 329 326 329 323 326
236 237 236 235 240 238 242 240 241 245 245 247 250 253 254 255 246 244 247 246 230 229 231 239 252 249 254 269 284 296 296 314 315 317 316 293 292 278 323 316 323 317 321 321 317 317 315 315 314
230 230 232 234 236 235 236 242 240 242 244 247 246 248 249 249 256 241 242 246 251 245 242 247 263 255 263 272 282 288 292 300 306 316 314 317 317 316 310 318 314 323 314 318 317 314 310 309 313
222 227 230 234 224 234 235 242 245 238 237 244 245 247 242 245 251 251 258 244 250 256 256 256 264 276 263 277 281 289 288 295 301 310 305 306 309 312 310 311 313 317 312 311 313 309 310 305 308
230 229 231 232 233 230 236 237 244 245 238 237 240 243 239 238 245 251 253 254 256 255 258 263 262 267 276 279 283 283 288 291 297 295 301 303 304 308 310 311 312 308 310 311 309 305 303 299 302
228 228 231 234 237 226 233 238 240 248 229 236 236 240 238 236 232 238 248 257 251 247 248 252 260 266 268 276 282 289 290 294 299 299 300 303 306 306 309 310 309 308 307 305 300 301 300 297 298
226 227 226 227 227 223 232 237 233 241 231 236 230 237 235 236 235 223 235 250 261 262 265 264 262 265 272 280 286 289 297 300 304 298 303 300 302 307 306 310 312 306 308 306 303 298 288 302 311
223 226 227 224 221 224 224 234 237 236 233 236 234 234 222 235 238 220 227 245 253 264 269 275 276 280 283 283 287 290 290 292 299 302 305 314 319 311 313 314 308 315 307 318 318 296 318 315 313
221 224 229 223 226 222 228 237 233 232 229 234 234 236 230 229 231 213 225 224 246 255 258 270 276 287 298 297 295 295 292 295 301 304 307 309 316 316 317 315 315 318 323 320 317 313 322 320 321
216 223 231 220 223 227 231 233 243 218 222 225 230 228 228 217 230 239 259 236 236 259 257 254 270 288 295 297 301 301 303 302 300 306 311 310 325 326 327 331 332 332 328 324 322 321 324 320 319
216 219 213 215 219 226 232 228 239 218 221 228 228 218 218 224 226 241 252 257 264 286 313 286 294 298 303 305 305 309 307 308 310 312 313 320 325 328 328 329 328 328 328 327 327 324 324 326 325
214 215 211 207 217 225 226 233 237 251 217 221 220 221 218 228 240 252 258 263 275 280 286 288 308 314 316 318 317 317 319 319 319 319 321 323 323 324 326 325 327 328 328 328 329 329 327 327 326
209 214 214 215 222 227 227 231 243 222 206 206 203 210 224 234 245 247 257 262 269 286 6 351 352 341 338 333 328 323 322 324 324 323 324 322 322 325 327 327 327 328 328 327 328 326 325 325 324
211 210 211 222 220 226 223 222 223 219 219 207 205 208 207 210 227 244 255 183 54 51 24 8 350 339 337 338 340 336 332 330 329 329 328 327 327 326 327 327 326 326 327 327 327 326 324 323 324
204 212 222 228 230 229 217 224 199 208 210 197 198 193 177 181 166 144 95 68 39 33 15 3 0 359 355 350 344 342 340 337 334 330 327 325 326 326 325 324 325 324 325 328 328 329 329 326 324
210 211 213 221 227 218 214 220 188 200 215 212 183 186 166 144 128 150 120 70 31 18 22 18 13 8 4 7 4 357 353 347 340 336 330 325 322 323 324 325 327 330 331 335 338 332 332 331 330